SCP
0 0 0 0 0 0 0 0 0 0 0 0 0 0 0 0 0 0 0 0 0 1 1 1 1 1 1 1 1 1 1 1 1 1 1 1 1 1 1 1 1 2 2
0 0 0 0 0 0 0 0 0 0 0 0 0 0 0 0 0 0 0 0 0 0 0 1 1 1 1 1 1 1 1 1 1 1 1 1 1 1 1 1 1 2 2
0 0 0 0 0 0 0 0 0 0 0 0 0 0 0 0 0 0 0 0 0 0 0 1 1 1 1 1 1 1 1 1 1 1 1 1 1 1 2 2 2 2 2
0 0 0 0 0 0 0 0 0 0 0 0 0 0 0 0 0 0 0 0 0 0 0 1 1 1 1 1 1 1 1 1 1 1 1 1 1 1 2 2 2 2 2
0 0 0 0 0 0 0 0 0 0 0 0 0 0 0 0 0 0 0 0 0 0 0 0 1 1 1 1 1 1 1 1 1 1 1 1 1 1 2 2 2 2 2
0 0 0 0 0 0 0 0 0 1 0 0 0 0 0 0 0 0 0 0 0 0 0 0 0 1 1 1 1 1 1 1 1 1 1 1 1 2 2 2 2 2 2
0 0 0 0 0 0 0 0 1 1 1 0 0 0 0 0 0 0 0 0 0 0 0 0 0 0 1 1 1 1 1 1 1 1 1 1 1 2 2 2 2 2 2
0 0 0 0 0 0 0 0 0 0 0 0 0 0 0 0 0 0 0 0 0 0 0 0 0 1 1 1 1 1 1 1 1 2 1 1 1 1 2 2 2 2 2
0 0 0 0 0 0 0 0 0 0 0 0 0 0 0 0 0 0 0 0 0 0 0 0 0 0 1 1 1 1 1 1 2 2 2 1 1 1 1 2 1 1 1
0 0 0 0 0 0 0 0 0 0 0 0 0 0 0 0 0 0 0 0 1 1 1 0 0 0 1 1 1 1 1 1 2 2 1 1 1 1 1 1 1 1 1
0 0 0 0 0 0 0 0 0 0 0 0 0 0 0 0 0 0 0 1 1 1 1 0 0 0 1 1 1 1 1 1 1 1 1 1 1 1 1 1 1 1 1
0 0 0 0 0 0 0 0 0 0 0 0 0 0 0 0 0 0 0 0 1 0 0 0 1 0 1 1 0 0 1 1 1 1 1 1 1 1 1 1 1 1 1
0 0 0 0 0 0 0 0 0 0 0 0 0 0 1 1 0 0 0 0 0 0 0 0 0 0 0 0 0 0 0 1 1 1 1 1 1 1 1 1 1 1 1
0 0 0 0 0 0 0 0 0 0 0 0 0 0 0 0 0 0 0 0 0 0 0 0 0 0 0 0 0 0 1 1 1 0 0 1 1 1 1 1 1 1 1
0 0 0 0 0 0 0 0 0 0 0 0 0 0 0 0 0 0 0 0 0 0 0 0 0 0 0 0 0 1 1 1 0 0 0 0 0 0 0 0 1 1 1
0 0 0 0 0 0 0 0 0 0 0 0 0 0 0 0 0 0 0 0 0 0 0 0 0 0 0 0 0 1 1 1 0 0 0 0 0 0 0 0 0 0 0
0 0 0 0 0 0 0 0 0 0 0 0 0 0 0 0 0 0 0 0 0 0 0 0 0 0 0 0 0 1 1 1 1 0 0 0 0 0 0 0 0 0 0
0 0 0 0 0 0 0 0 0 0 0 0 0 0 0 0 0 0 0 0 0 0 0 0 0 0 0 0 0 1 1 1 1 0 0 0 0 0 0 0 0 0 0
0 0 0 0 0 0 0 0 0 0 0 0 0 0 0 0 0 0 0 0 0 0 0 0 0 0 0 0 0 0 1 1 1 0 0 0 0 0 0 0 0 0 0
0 0 0 0 0 0 0 0 0 0 0 0 0 0 0 0 0 0 0 0 0 0 0 0 0 0 0 0 0 0 1 1 1 0 0 0 0 0 0 0 0 0 0
0 0 0 0 0 0 0 0 0 0 0 0 0 0 0 0 0 0 0 0 0 0 0 0 0 0 0 0 0 0 0 1 1 1 1 1 1 1 0 0 0 0 0
0 0 0 0 0 0 0 0 0 0 0 0 0 0 0 0 0 0 0 0 0 0 0 0 0 0 0 0 0 0 0 0 1 1 1 1 1 1 1 0 0 0 0
0 0 0 0 0 0 0 0 0 0 0 0 0 0 0 0 0 0 0 0 0 0 0 0 0 0 0 0 0 0 0 0 1 1 1 1 1 1 1 1 0 0 0
0 0 0 0 0 0 0 0 0 0 0 0 0 0 0 0 0 0 0 0 0 0 0 0 0 0 0 0 0 0 1 1 1 1 1 1 1 1 1 1 0 0 0
0 0 0 0 0 0 0 0 0 0 0 0 0 0 0 0 0 0 0 0 0 0 0 0 0 0 0 0 0 1 1 1 1 1 1 1 1 1 1 1 0 0 0
0 0 0 0 0 0 0 0 0 0 0 0 0 0 0 0 0 0 0 0 0 0 0 0 0 0 0 0 0 0 1 1 1 1 1 1 1 1 1 1 0 0 0
Wind_Speed
3 3 2 2 3 3 2 2 2 3 2 3 2 2 2 1 1 1 3 5 4 4 4 4 3 3 3 2 2 3 3 2 2 3 4 5 6 7 8 9 10 11 11
3 2 3 3 3 3 3 2 2 2 2 2 2 2 2 2 1 1 1 4 4 3 3 3 3 3 3 3 3 3 3 3 3 3 4 5 6 6 8 9 10 12 11
3 3 3 3 3 3 2 3 3 2 2 1 1 1 1 2 2 2 1 1 2 4 3 3 3 3 4 4 3 3 3 3 4 4 4 5 6 7 9 9 10 11 12
4 3 3 3 3 3 2 2 2 2 2 2 2 1 1 1 2 2 1 1 1 1 4 4 3 4 4 4 4 3 3 3 3 3 2 3 5 6 7 9 10 11 11
4 4 3 3 3 3 3 3 3 3 2 2 2 1 2 2 2 2 2 2 2 1 1 4 3 2 3 4 4 3 3 3 3 2 0 2 4 6 6 8 9 10 11
4 4 3 4 3 3 3 3 3 2 2 2 1 2 2 2 2 3 3 2 2 2 2 2 0 3 3 4 5 4 3 3 3 2 1 3 3 4 7 7 8 10 11
4 4 3 4 4 3 3 3 3 3 2 2 1 1 2 2 3 3 2 2 3 3 2 2 2 2 1 3 3 4 5 3 2 3 2 3 4 4 6 7 7 9 11
4 3 4 3 3 3 3 4 3 3 3 3 2 1 0 2 2 3 2 3 3 2 2 2 3 2 3 2 4 5 6 4 2 3 2 2 3 4 5 6 6 7 8
3 4 4 4 3 3 3 4 4 4 3 3 4 3 2 2 1 2 3 3 3 3 2 3 3 3 3 3 2 4 7 6 4 3 2 2 3 4 5 5 6 6 7
3 3 4 4 4 3 3 3 4 3 3 2 2 3 3 3 2 1 2 3 3 3 4 3 3 3 3 3 3 6 7 6 5 4 2 1 2 4 4 4 5 7 7
2 3 3 3 3 3 4 4 4 4 3 3 3 2 2 1 2 2 2 2 2 3 4 4 3 3 3 3 3 6 5 5 5 5 3 1 1 3 4 3 5 6 7
2 3 2 2 3 3 3 3 3 3 3 3 3 3 3 2 3 2 2 2 2 3 3 3 3 3 3 3 4 6 4 4 4 4 4 3 1 2 3 3 4 5 6
2 2 1 2 3 3 3 3 3 3 3 3 3 3 3 3 3 3 3 3 2 1 2 2 3 3 3 3 3 5 2 3 3 3 3 3 2 1 1 2 3 4 5
2 2 1 2 3 3 2 3 2 3 3 3 3 3 2 3 3 2 3 3 2 1 2 3 3 4 4 3 5 4 2 3 3 3 2 2 2 2 1 0 2 3 4
2 2 2 2 2 2 2 2 2 3 3 3 3 3 2 2 2 2 2 2 3 3 2 3 3 4 4 4 5 3 2 5 3 2 2 1 0 0 1 1 1 2 2
2 2 2 2 2 2 2 2 2 3 2 3 2 3 3 2 2 2 2 2 2 3 3 3 3 4 5 4 4 4 3 1 0 1 1 1 0 1 1 1 2 2 2
3 2 2 3 3 3 2 2 3 3 2 3 2 3 3 3 2 2 2 2 2 2 3 3 3 3 4 5 4 4 3 2 1 2 0 1 1 1 2 2 3 3 3
3 3 3 3 3 3 3 3 3 3 3 3 3 3 3 3 3 3 2 2 2 3 3 4 3 4 5 5 5 4 3 3 2 2 1 1 1 1 2 2 3 3 4
4 4 3 3 3 3 3 3 3 3 4 4 4 4 4 4 3 3 3 3 3 3 3 3 4 3 4 4 5 4 3 3 3 0 2 2 2 3 4 4 4 4 4
4 4 4 3 3 3 3 3 3 3 4 4 4 4 5 5 5 5 3 4 3 3 3 3 3 3 3 4 4 4 3 3 3 2 1 2 2 5 6 6 6 6 6
4 4 4 4 4 3 4 4 3 3 3 4 4 4 5 6 8 6 5 5 5 3 3 3 4 3 3 4 4 4 5 4 4 2 3 3 3 3 4 6 7 6 6
4 4 3 3 3 4 6 6 5 2 2 3 4 4 3 3 3 1 3 5 6 5 5 4 4 4 5 5 5 5 5 5 4 2 4 5 4 4 4 4 3 5 7
4 3 3 3 3 5 4 4 5 3 3 3 4 4 3 3 4 4 2 4 2 2 4 6 6 6 6 6 7 7 6 6 6 5 6 6 5 6 5 4 5 7 9
4 3 2 2 3 4 4 3 4 3 2 2 3 4 4 4 6 8 7 5 5 4 4 6 6 6 7 7 7 8 8 8 7 5 5 7 6 6 6 5 6 9 9
3 3 2 2 2 3 3 3 5 2 2 2 3 3 5 5 6 8 7 6 6 5 2 5 7 8 8 9 8 7 7 7 7 6 5 6 6 7 7 7 6 8 9
3 3 2 1 1 1 3 2 5 3 3 3 3 2 2 5 7 8 8 7 7 7 7 7 7 7 8 6 7 7 6 7 7 6 5 5 6 7 6 6 6 5 7
Wind_Direction
30 32 30 21 8 11 11 358 343 22 2 10 5 9 10 12 5 23 91 87 50 30 26 28 24 20 7 355 340 329 326 307 287 270 252 230 227 219 203 203 197 185 177
28 13 27 27 17 9 8 348 13 5 354 18 7 18 355 3 19 21 39 116 110 63 35 29 19 11 1 347 333 321 313 310 300 280 256 234 227 215 200 197 188 179 176
24 25 18 25 17 6 1 359 19 354 7 22 36 25 27 2 360 17 27 2 117 126 90 39 23 16 5 350 335 320 313 304 310 292 267 235 218 200 191 187 179 176 175
32 28 20 19 10 3 5 14 358 4 23 19 23 19 46 48 11 22 26 53 24 31 113 83 45 26 6 357 345 328 322 313 314 309 284 227 199 183 180 185 181 177 177
27 38 27 12 15 14 12 10 23 0 21 20 29 39 37 43 26 17 33 32 43 14 36 111 115 58 27 9 351 338 331 333 330 328 17 154 162 167 171 178 181 181 181
31 34 34 27 23 28 21 27 42 30 20 2 22 52 48 51 49 31 22 30 23 20 17 26 67 118 82 29 8 357 353 355 359 4 76 138 140 155 162 168 175 182 182
34 35 22 33 21 33 24 24 28 45 33 356 344 99 112 81 49 44 19 12 34 27 11 24 5 11 102 104 39 15 4 356 6 28 49 131 139 147 155 159 166 177 178
34 30 29 35 40 37 32 30 24 6 29 4 343 323 112 125 77 56 40 32 24 27 19 20 18 25 1 14 69 34 6 13 42 40 44 108 138 144 152 159 163 165 170
41 34 31 29 29 31 38 22 21 16 15 27 17 351 352 33 22 71 46 45 37 23 19 21 8 17 12 4 23 51 22 28 32 28 42 116 147 146 150 159 167 170 175
49 37 32 31 35 35 39 27 30 14 3 20 39 22 18 19 335 39 74 51 41 34 26 17 15 19 14 16 29 37 23 19 18 15 19 117 152 148 148 161 178 180 178
66 54 34 34 36 37 35 29 23 13 18 12 16 19 28 24 342 354 31 20 38 42 34 26 26 24 13 12 2 36 22 15 14 11 4 360 177 170 159 165 169 174 176
94 78 49 45 39 34 33 28 24 32 21 23 9 16 4 5 4 6 358 7 19 32 32 39 27 27 12 2 23 26 11 10 14 12 6 359 338 183 175 172 160 164 171
99 80 66 50 44 36 34 28 32 29 35 24 13 15 13 7 1 355 352 0 352 14 35 51 41 31 13 5 25 1 33 13 8 14 11 3 356 356 165 179 172 172 176
72 76 75 62 55 45 38 35 21 35 27 34 30 22 10 17 5 0 353 337 334 5 40 35 33 29 13 5 18 319 43 54 21 16 15 9 10 5 353 202 181 180 182
83 82 80 76 68 51 31 25 28 35 27 22 20 22 14 19 4 1 341 325 326 330 2 26 12 16 3 7 1 336 4 55 22 17 24 17 54 351 323 257 202 193 193
95 101 84 75 71 62 48 37 34 31 32 39 12 3 3 357 2 347 329 326 316 314 325 355 353 356 358 347 9 348 6 83 109 28 8 353 277 230 240 246 237 216 215
109 100 82 72 65 51 49 55 42 41 31 32 23 18 10 7 352 353 347 337 330 319 308 320 340 348 350 351 354 344 338 323 81 110 342 296 278 272 261 252 242 229 221
101 95 87 76 67 54 46 45 43 36 35 30 23 19 18 22 9 4 351 344 344 328 309 317 324 339 343 347 342 332 330 338 332 101 191 262 265 262 258 251 242 236 227
107 98 87 77 68 57 54 48 44 38 36 31 27 24 22 17 11 16 352 350 345 337 320 304 320 331 324 339 331 326 323 324 312 182 195 202 223 246 247 243 236 233 232
105 97 87 76 66 58 49 46 44 41 41 39 32 29 25 18 8 2 353 352 341 332 326 314 314 322 327 334 322 325 324 327 309 301 318 282 235 233 233 233 232 229 230
102 94 88 79 69 58 43 25 35 39 40 39 36 36 40 33 20 4 354 347 341 330 328 326 320 322 328 334 335 327 319 315 304 294 299 285 268 262 242 227 225 230 239
108 100 95 84 75 63 49 16 350 26 30 30 24 22 38 42 22 11 354 339 335 334 333 324 315 317 323 330 329 315 314 310 305 310 301 294 283 274 267 261 230 226 238
122 114 104 94 87 77 57 26 345 337 9 10 3 6 6 12 340 345 313 247 254 262 293 306 310 316 316 321 316 308 305 302 299 305 299 287 283 277 274 266 227 234 239
135 133 118 110 94 80 57 21 322 306 352 355 348 344 342 351 9 341 327 328 328 326 313 300 310 313 315 316 307 299 296 289 285 282 281 282 286 284 285 276 231 229 234
148 152 141 135 133 111 76 7 312 317 321 332 335 342 337 338 11 329 312 317 317 318 284 269 287 286 286 281 284 286 287 285 288 290 284 280 288 292 286 274 253 224 234
164 163 153 171 167 108 83 12 312 304 312 313 313 307 4 336 342 324 308 311 312 319 313 300 282 272 278 273 255 272 287 288 290 290 288 287 289 294 287 274 274 264 250